www.pogodaiklimat.ru

Погода и климат >> Архив погоды >> Индонезия >> Муаратевех


ПОГОДА в Муаратевехе

  • Прогноз погоды в Муаратевехе
  • Монитор погоды в Муаратевехе

АРХИВ ПОГОДЫ в Муаратевехе

Время (UTC), дата Ветер
(напр.,м/с)
 
Видим.   Явления Облачность Т
(С)
Тd
(С)
f
(%)
Тe
(С)
Тes
(С)
Комфортность P
(гПа)
Po
(гПа)
Тmin
(С)
Tmax
(С)
R
(мм)
R24
(мм)
S
(см)
15 14.07 штиль 0 6000 м 4/1 420 м
[Sc Ac trans Ci fib]
+23.9 +22.6 92 +31 +31 очень
душно
1011.6 1007.2
00 15.07 штиль 0 8000 м 4/3 330 м
[Sc Ci sp]
+21.8 +20.6 93 +28 +31 душно 1011.8 1007.5 +20.3
03 15.07 штиль 0 10 км 6/6 400 м
[Sc Ci sp]
+27.8 +22.3 72 +36 +45 очень
душно
1011.8 1007.5
06 15.07 ЮВ 3 12 км 8/8 420 м
[Sc Ac trans Ci sp]
+31.3 +20.9 54 +39 +41 очень
душно
1009.4 1005.0
09 15.07 штиль 0 11 км 4/4 480 м
[Sc]
+30.9 +21.6 58 +39 +41 очень
душно
1008.4 1004.0
12 15.07 штиль 0 7000 м 1/1 500 м
[Cu hum]
+26.5 +24.0 86 +37 +37 очень
душно
1009.7 1005.4 +32.0
15 15.07 штиль 0 3000 м мгла 3/1 450 м
[Cu hum Ac trans]
+23.9 +22.5 92 +31 +31 очень
душно
1011.3 1007.0
00 16.07 штиль 0 2000 м дымка 10/8 300 м
[Sc Ac As]
+21.8 +20.8 94 +28 +28 душно 1012.3 1007.9 +21.1
03 16.07 ЮЗ 2 9000 м 8/6 360 м
[Sc Ac trans Ci sp]
+28.3 +22.8 72 +38 +43 очень
душно
1011.7 1007.4
06 16.07 З 2 12 км 8/5 400 м
[Sc Ac trans Ci sp]
+31.2 +21.4 56 +39 +45 очень
душно
1009.2 1004.9
09 16.07 штиль 0 12 км 8/5 420 м
[Sc Cs]
+32.0 +21.4 54 +40 +41 очень
душно
1007.9 1003.6
12 16.07 штиль 0 9000 м 8/3 450 м
[Sc Ac trans Cs]
+27.2 +23.5 80 +37 +37 очень
душно
1009.3 1005.0 +32.3
15 16.07 штиль 0 7000 м 8/3 420 м
[Sc Ac trans Cs]
+24.3 +22.7 91 +32 +32 очень
душно
1010.2 1005.8
00 17.07 штиль 0 4000 м мгла 8/0
[Ac As Cs]
+24.0 +23.0 94 +32 +35 очень
душно
1011.1 1006.7 +21.7
03 17.07 ЮВ 2 12 км 5/5 400 м
[Sc Ac trans Cs]
+28.5 +22.9 72 +38 +47 очень
душно
1010.5 1006.2
06 17.07 штиль 0 12 км 8/5 420 м
[Cu Sc Ac trans Cs]
+31.0 +22.8 62 +41 +48 опасность
перегрева
1008.5 1004.2
09 17.07 штиль 0 12 км 5/3 420 м
[Sc Ac trans Cs]
+32.2 +22.1 55 +41 +43 опасность
перегрева
1007.2 1002.9
12 17.07 штиль 0 6000 м 5/1 420 м
[Sc Ac trans Cs]
+27.8 +24.1 80 +39 +39 очень
душно
1008.4 1004.1 +32.4
15 17.07 штиль 0 4000 м мгла 8/3 400 м
[Sc Ac trans Cs]
+25.2 +23.9 93 +35 +35 очень
душно
1009.8 1005.5
00 18.07 штиль 0 5000 м мгла 9/0
[Ac trans Ci sp]
+24.0 +22.7 92 +31 +34 очень
душно
1012.4 1008.0 +22.8
03 18.07 штиль 0 11 км 6/3 360 м
[Sc Ac trans Ci sp]
+29.2 +23.0 69 +39 +52 опасность
солнечного
удара
1009.5 1005.2
06 18.07 штиль 0 12 км 8/6 400 м
[Cu Sc Ac trans Ci sp]
+32.8 +21.8 52 +41 +47 опасность
перегрева
1007.2 1002.9
09 18.07 В 2 10 км 9/5 420 м
[Sc Ac trans Ci sp]
+32.3 +23.4 59 +43 +44 опасность
перегрева
1006.3 1002.0
12 18.07 штиль 0 9000 м 8/4 400 м
[Sc Ac trans Ci sp]
+29.0 +25.4 81 +43 +43 опасность
перегрева
1007.7 1003.4 +33.5
15 18.07 штиль 0 6000 м мгла 9/5 360 м
[Sc Ac trans Ci sp]
+26.5 +24.3 88 +37 +37 очень
душно
1009.5 1005.1
00 19.07 штиль 0 8000 м 4/0
[Ac trans Ci fib]
+25.2 +23.7 91 +34 +38 очень
душно
1009.8 1005.5 +24.0
03 19.07 СВ 3 11 км 8/3 330 м
[Sc Ac trans Ci sp]
+30.6 +24.1 68 +42 +49 опасность
перегрева
1009.4 1005.1
06 19.07 штиль 0 12 км 9/8 400 м
[Sc Ac trans Ci sp]
+32.5 +23.9 61 +44 +48 опасность
перегрева
1007.4 1003.1
09 19.07 штиль 0 12 км 9/1 420 м
[Sc Ac trans Ci sp]
+32.5 +24.8 64 +46 +47 опасность
перегрева
1006.5 1002.2
12 19.07 штиль 0 10 км 9/5 400 м
[Sc Ac trans Ci sp]
+29.1 +25.9 83 +44 +44 опасность
перегрева
1008.0 1003.7 +33.1
15 19.07 штиль 0 8000 м 9/6 400 м
[Sc Ac trans Ci sp]
+27.7 +25.6 88 +41 +41 опасность
перегрева
1009.6 1005.3
00 20.07 СВ 2 4000 м мгла 5/5 330 м
[Sc Ac trans]
+26.8 +25.0 90 +39 +40 очень
душно
1010.3 1006.0 +24.0
03 20.07 В 3 12 км 9/9 400 м
[Cu Sc Ac trans]
+30.9 +24.7 70 +44 +45 опасность
перегрева
1010.4 1006.1
06 20.07 10 км н/о +33.5 +24.6 60 +47 +51 опасность
перегрева
1007.8 1003.5
09 20.07 В 2 10 км 4/3 480 м
[Cb cap Ac trans Ci fib]
+34.0 +23.4 54 +45 +46 опасность
перегрева
1006.1 1001.8
12 20.07 штиль 0 8000 м 9/6 420 м
[Sc Ac trans Ci fib]
+29.6 +25.0 76 +42 +42 опасность
перегрева
1008.0 1003.7 +34.8
15 20.07 штиль 0 6000 м осадки на расстоянии 10/8 420 м
[Cb cap Ac As]
+27.6 +25.0 86 +40 +40 очень
душно
1009.5 1005.2
00 21.07 штиль 0 8000 м 3/1 330 м
[Sc Ac trans Ci sp]
+26.3 +24.1 88 +37 +40 очень
душно
1010.7 1006.4 +24.6
03 21.07 СВ 3 11 км 8/8 400 м
[Sc Ac trans Ci sp]
+30.7 +23.8 67 +42 +45 опасность
перегрева
1010.3 1006.0
06 21.07 СВ 2 12 км 9/6 420 м
[Sc Ac trans Ci sp]
+32.7 +24.5 62 +45 +50 опасность
перегрева
1007.9 1003.5
09 21.07 В 3 11 км осадки на расстоянии 9/6 420 м
[Cb cap As op Ci sp]
+31.4 +25.3 70 +45 +46 опасность
перегрева
1006.7 1002.4
12 21.07 штиль 0 8000 м осадки на расстоянии 9/6 330 м
[Cb cap Ac As Ci sp]
+29.0 +26.1 84 +44 +44 опасность
перегрева
1008.9 1004.5 +33.2 4

 

Местоположение метеостанции Муаратевех (Индонезия): широта -0.95 долгота 114.90 высота над уровнем моря 60 м.

В архиве по умолчанию представлена погода в Муаратевехе за последнюю неделю. Архивные данные за месяц целиком и за предыдущие месяцы, начиная с января 2011 года, Вы можете получить, выбрав интересующий диапазон дат из раскрывающегося списка и нажав кнопку "Ввод!".


*Определитесь, кто Вы:
робот инопланетянин человек

Внимание! Время в таблицах - всемирное. Для получения местного времени необходимо прибавить поправку, которая равна 7 ч.

Смотрите также архив погоды в соседних городах и на ближайших метеорологических станциях:

Погода в Паоанкарая (Индонезия) (100 км)
Погода в Баликпапане (Индонезия) (225 км)
Погода в Самаринде (Индонезия) (253 км)
Погода в Банджармасине (Индонезия) (276 км)
Погода на Путусиббау (Индонезия) (295 км)
Погода в Котабару (Индонезия) (309 км)
Погода в Нангапинохе (Индонезия) (353 км)
Погода в Синтанге (Индонезия) (393 км)
Погода в Пангкалан-Буне (Индонезия) (406 км)
Погода в Танджунгредепе (Индонезия) (444 км)

Пояснения к столбцам:

Ветер - указаны скорость ветра в м/с - средняя за 10 мин, порывы в срок и между сроками (в фигурных скобках) и направление, откуда дует ветер: С - северный, СВ - северо-восточный, В - восточный, ЮВ - юго-восточный, Ю - южный, ЮЗ - юго-западный, З - западный, СЗ - северо-западный.
Видимость - горизонтальная дальность видимости в метрах или километрах. При видимости от 1 до 10 км при отсутствии осадков обычно наблюдается дымка, при ухудшении видимости до 1 км и менее - туман. В сухую погоду видимость может ухудшаться дымом, пылью или мглою.
Явления - указаны атмосферные явления, наблюдавшиеся в срок или в последний час перед сроком; фигурными скобками обозначены явления, наблюдавшиеся между сроками (за 1-3 часа до срока); квадратными скобками обозначены град или гололедные отложения с указанием их диаметра в мм.
Облачность - указаны через наклонную черту общая и нижняя облачность в баллах и высота нижней границы облаков в метрах; квадратными скобками обозначены формы облаков: Ci - перистые, Cs - перисто-слоистые, Cc - перисто-кучевые, Ac - высококучевые, As - высокослоистые, Sc - слоисто-кучевые, Ns - слоисто-дождевые, Cu - кучевые, Cb - кучево-дождевые. Подробнее классификацию облаков см. в Атласе облаков (PDF).
T - Температура воздуха - температура, измеренная на высоте 2 м над землей.
Td - Температура точки росы - температура, при понижении до которой содержащийся в воздухе водяной пар достигнет насыщения.
f - Относительная влажность воздуха - влажноcть воздуха, измеренная на высоте 2 м над землей.
Te - Эффективная температура - температура, которую ощущает одетый по сезону человек в тени. Характеристика душности погоды. При расчете учитывается влияние влажности воздуха и скорости ветра на теплоощущения человека.
Tes - Эффективная температура на солнце - температура, которую ощущает человек, с поправкой на солнечный нагрев. Характеристика знойности погоды. Зависит от высоты солнца над горизонтом, облачности и скорости ветра. Ночью, в пасмурную погоду, а также при ветре 12 м/с и более поправка равна нулю.
P - Атмосферное давление - приведенное к уровню моря атмосферное давление.
Po - Атмосферное давление - измеренное на уровне метеостанции атмосферное давление.
Tmin - Минимальная температура - минимум температуры воздуха на высоте 2 м над землей.
Tmax - Максимальная температура - максимум температуры воздуха на высоте 2 м над землей.
R - Количество осадков - Количество выпавших осадков за период времени, мм. При наведении курсора мыши на число - период времени, за который выпало указанное количество осадков.
R24 - Количество осадков - Количество выпавших осадков за 24 часа, мм.
S - Снежный покров - Высота снежного покрова, см. При наведении курсора мыши на число - состояние снежного покрова и степень покрытия местности в баллах.